Arcata, CA

3:44 AM PDT on April 24, 2017 (GMT -0700)
Arcata

Weather History for KACV - July, 2014

Change the Weather History Date:

Wednesday, July 2, 2014

  Actual Average Record
Temperature  
Mean Temperature 60 °F -  
Max Temperature 66 °F 61 °F 69 °F (2007)
Min Temperature 55 °F 47 °F 44 °F (1999)
Degree Days  
Heating Degree Days 6    
Growing Degree Days 10 (Base 50)    
Moisture  
Dew Point 55 °F    
Average Humidity 89    
Maximum Humidity 100    
Minimum Humidity 70    
Precipitation  
Precipitation 0.00 in - - ()
Sea Level Pressure  
Sea Level Pressure 29.97 in    
Wind  
Wind Speed 6 mph (NNW)    
Max Wind Speed 18 mph    
Max Gust Speed 25 mph    
Visibility 5 miles    
Events Fog    
Averages and records for this station are not official NWS values.
T = Trace of Precipitation, MM = Missing Value Source: NWS Daily Summary

Daily Weather History Graph

Daily Weather History Graph

Search for Another Location

Airport or City:

Trip Planner

Search our weather history database for the weather conditions in past years. The results will help you decide how hot, cold, wet, or windy it might be!

Date:

Astronomy

Jul. 02, 2014 Rise Set
Actual Time 5:48 AM PDT 8:52 PM PDT
Civil Twilight 5:15 AM PDT 9:25 PM PDT
Nautical Twilight 4:32 AM PDT 10:08 PM PDT
Astronomical Twilight 3:42 AM PDT 10:57 PM PDT
Moon 10:59 AM PDT (7/2) 11:45 PM PDT (7/2)
Length of Visible Light 16h 10m
Length of Day
15h 03m
Waxing Crescent, 25% of the Moon is Illuminated
Jul 2
Waxing Crescent
Jul 5
First Quarter
Jul 12
Full
Jul 18
Last Quarter
Jul 26
New

Hourly Weather History & Observations

Time (PDT) Temp. Dew Point Humidity Pressure Visibility Wind Dir Wind Speed Gust Speed Precip Events Conditions
12:03 AM 57.0 °F 55.0 °F 93% 29.94 in 7.0 mi NNW 3.5 mph - N/A   Overcast
12:12 AM 57.0 °F 55.0 °F 93% 29.94 in 4.0 mi North 5.8 mph - N/A   Overcast
12:40 AM 57.9 °F 55.9 °F 93% 29.93 in 10.0 mi NW 3.5 mph - N/A   Overcast
12:53 AM 57.9 °F 55.0 °F 90% 29.95 in 7.0 mi North 4.6 mph - N/A   Overcast
1:16 AM 57.0 °F 55.0 °F 93% 29.93 in 2.5 mi NNW 5.8 mph - N/A   Overcast
1:24 AM 57.0 °F 55.0 °F 93% 29.94 in 1.8 mi NNW 5.8 mph - N/A   Overcast
1:28 AM 57.0 °F 55.0 °F 93% 29.94 in 3.0 mi NNW 4.6 mph - N/A   Overcast
1:34 AM 57.0 °F 55.0 °F 93% 29.94 in 1.8 mi NNW 6.9 mph - N/A   Overcast
1:46 AM 57.0 °F 55.0 °F 93% 29.94 in 0.8 mi NNW 5.8 mph - N/A   Mist
1:53 AM 57.0 °F 55.0 °F 93% 29.95 in 0.8 mi NNW 5.8 mph - N/A   Mist
2:00 AM 57.0 °F 55.9 °F 96% 29.94 in 1.2 mi NNW 4.6 mph - N/A   Overcast
2:06 AM 57.9 °F 55.9 °F 93% 29.94 in 3.0 mi NNW 4.6 mph - N/A   Overcast
2:12 AM 57.0 °F 55.9 °F 96% 29.94 in 1.5 mi NW 8.1 mph - N/A   Overcast
2:21 AM 57.0 °F 55.0 °F 93% 29.94 in 0.5 mi NNW 5.8 mph - N/A Fog Fog
2:33 AM 57.0 °F 55.0 °F 93% 29.94 in 0.2 mi NNW 5.8 mph - N/A Fog Fog
2:43 AM 57.0 °F 55.0 °F 93% 29.94 in 0.2 mi NW 6.9 mph - N/A Fog Fog
2:53 AM 57.0 °F 55.0 °F 93% 29.96 in 0.2 mi NNW 5.8 mph - N/A Fog Fog
2:56 AM 57.0 °F 55.0 °F 93% 29.94 in 0.5 mi NW 4.6 mph - N/A Fog Fog
3:19 AM 57.0 °F 55.0 °F 93% 29.94 in 1.0 mi NW 4.6 mph - N/A   Mist
3:26 AM 57.0 °F 55.9 °F 96% 29.94 in 0.5 mi NNW 3.5 mph - N/A Fog Fog
3:38 AM 57.0 °F 55.9 °F 96% 29.94 in 2.0 mi Calm Calm - N/A   Overcast
3:53 AM 57.0 °F 55.9 °F 96% 29.96 in 2.5 mi Calm Calm - N/A   Overcast
4:00 AM 57.0 °F 57.0 °F 100% 29.94 in 3.0 mi Calm Calm - N/A   Overcast
4:38 AM 57.0 °F 55.0 °F 93% 29.93 in 1.5 mi West 5.8 mph - N/A   Overcast
4:53 AM 55.9 °F 54.0 °F 93% 29.95 in 0.2 mi WNW 5.8 mph - N/A Fog Fog
5:16 AM 55.9 °F 54.0 °F 93% 29.94 in 0.2 mi NW 4.6 mph - N/A Fog Fog
5:53 AM 55.0 °F 54.0 °F 96% 29.97 in 0.2 mi NNW 4.6 mph - N/A Fog Fog
6:09 AM 55.9 °F 54.0 °F 93% 29.95 in 0.2 mi North 3.5 mph - N/A Fog Fog
6:19 AM 55.9 °F 54.0 °F 93% 29.95 in 0.8 mi North 3.5 mph - N/A   Mist
6:23 AM 55.9 °F 54.0 °F 93% 29.95 in 2.0 mi North 4.6 mph - N/A   Overcast
6:31 AM 55.9 °F 55.0 °F 97% 29.95 in 5.0 mi NNW 3.5 mph - N/A   Overcast
6:48 AM 55.4 °F 55.4 °F 100% 29.96 in 2.5 mi Calm Calm - N/A   Overcast
6:53 AM 55.9 °F 55.0 °F 97% 29.97 in 7.0 mi Calm Calm - N/A   Overcast
7:21 AM 55.9 °F 54.0 °F 93% 29.96 in 1.5 mi NW 5.8 mph - N/A   Overcast
7:38 AM 55.9 °F 55.0 °F 97% 29.96 in 3.0 mi North 3.5 mph - N/A   Overcast
7:53 AM 55.9 °F 55.0 °F 97% 29.98 in 5.0 mi NNW 3.5 mph - N/A   Overcast
8:53 AM 57.9 °F 55.9 °F 93% 29.98 in 10.0 mi Calm Calm - N/A   Overcast
9:50 AM 59.0 °F 55.4 °F 88% 29.97 in 10.0 mi WNW 5.8 mph - N/A   Overcast
9:53 AM 57.9 °F 55.0 °F 90% 29.99 in 10.0 mi NW 4.6 mph - N/A   Overcast
10:05 AM 59.0 °F 55.9 °F 90% 29.97 in 10.0 mi Calm Calm - N/A   Overcast
10:29 AM 60.1 °F 55.0 °F 83% 29.98 in 10.0 mi WNW 5.8 mph - N/A   Overcast
10:48 AM 59.0 °F 55.4 °F 88% 29.98 in 9.0 mi NW 8.1 mph - N/A   Overcast
10:53 AM 59.0 °F 55.0 °F 87% 30.00 in 8.0 mi NW 8.1 mph - N/A   Overcast
11:33 AM 60.1 °F 55.0 °F 83% 29.99 in 1.8 mi NW 9.2 mph - N/A   Haze
11:48 AM 59.0 °F 53.6 °F 82% 30.00 in 0.8 mi NW 10.4 mph - N/A   Haze
11:53 AM 59.0 °F 55.0 °F 87% 30.01 in 1.2 mi NNW 10.4 mph - N/A   Overcast
12:15 PM 60.1 °F 55.0 °F 83% 30.00 in 2.5 mi NNW 10.4 mph - N/A   Haze
12:23 PM 62.1 °F 55.9 °F 80% 30.00 in 6.0 mi NW 10.4 mph - N/A   Haze
12:53 PM 62.1 °F 55.0 °F 78% 30.02 in 10.0 mi NW 10.4 mph - N/A   Overcast
1:27 PM 61.0 °F 54.0 °F 78% 30.01 in 10.0 mi NW 10.4 mph - N/A   Overcast
2:50 PM 62.6 °F 55.4 °F 77% 30.01 in 10.0 mi NW 17.3 mph 25.3 mph N/A   Scattered Clouds
2:53 PM 63.0 °F 55.0 °F 75% 30.03 in 10.0 mi NNW 18.4 mph 25.3 mph N/A   Partly Cloudy
3:53 PM 64.9 °F 55.0 °F 70% 30.03 in 10.0 mi NW 15.0 mph 23.0 mph N/A   Clear
4:53 PM 64.0 °F 55.0 °F 73% 30.03 in 10.0 mi NNW 15.0 mph - N/A   Partly Cloudy
5:43 PM 63.0 °F 54.0 °F 72% 30.03 in 10.0 mi North 15.0 mph 23.0 mph N/A   Mostly Cloudy
5:53 PM 64.9 °F 55.0 °F 70% 30.04 in 10.0 mi NNW 17.3 mph 25.3 mph N/A   Mostly Cloudy
6:53 PM 61.0 °F 54.0 °F 78% 30.04 in 10.0 mi NNW 15.0 mph - N/A   Overcast
7:53 PM 60.1 °F 54.0 °F 80% 30.04 in 10.0 mi NNW 12.7 mph - N/A   Overcast
8:53 PM 57.0 °F 53.1 °F 87% 30.04 in 10.0 mi NNW 9.2 mph - N/A   Clear
9:53 PM 55.9 °F 53.1 °F 90% 30.06 in 10.0 mi NW 8.1 mph - N/A   Clear
10:53 PM 55.0 °F 53.1 °F 93% 30.06 in 10.0 mi North 3.5 mph - N/A   Clear
11:53 PM 55.9 °F 53.1 °F 90% 30.05 in 10.0 mi Calm Calm - N/A   Scattered Clouds